This demonstration page uses our WeatherBlox Daily Observations layout. Learn more.

Left ArrowRight Arrow

Hourly Observations for April 14, 2021

Temp ( °F °C ) Dew Point ( °F °C ) Humidity (%) Winds ( mph kmh ) Pressure ( in mb ) Visibility ( mi km ) Precip ( " mm )
12:53 am 00:53 Clear 57 13.9 50 10 78 78 Calm 30.06 1018 10 16 0.00 0.00
1:53 am 01:53 Clear 57 13.9 51 10.6 81 81 Calm 30.05 1018 10 16 0.00 0.00
2:53 am 02:53 Clear 54 12.2 51 10.6 90 90 ENE 3 6 30.04 1017 10 16 0.00 0.00
3:53 am 03:53 Clear 54 12.2 50 10 87 87 Calm 30.04 1017 10 16 0.00 0.00
4:53 am 04:53 Mostly Cloudy 52 11.1 50 10 93 93 Calm 30.05 1018 10 16 0.00 0.00
5:53 am 05:53 Clear 53 11.7 50 10 89 89 Calm 30.04 1017 10 16 0.00 0.00
6:53 am 06:53 Clear 51 10.6 48 8.9 89 89 Calm 30.05 1018 10 16 0.00 0.00
7:53 am 07:53 Sunny 51 10.6 51 10.6 100 100 Calm 30.06 1018 10 16 0.00 0.00
8:53 am 08:53 Sunny 58 14.4 53 11.7 84 84 W 3 6 30.07 1018 10 16 0.00 0.00
9:53 am 09:53 Sunny 66 18.9 53 11.7 63 63 Calm 30.06 1018 10 16 0.00 0.00
10:53 am 10:53 Mostly Sunny 73 22.8 49 9.4 43 43 Calm 30.05 1018 10 16 0.00 0.00
11:53 am 11:53 Sunny 78 25.6 43 6.1 29 29 VRB 3 6 30.04 1017 10 16 0.00 0.00
12:53 pm 12:53 Sunny 81 27.2 42 5.6 25 25 SSW 12 19 30.02 1017 10 16 0.00 0.00
1:53 pm 13:53 Sunny 81 27.2 39 3.9 22 22 SW 12 19 29.99 1016 10 16 0.00 0.00
2:53 pm 14:53 Cloudy 80 26.7 43 6.1 27 27 WSW 14 22 29.98 1015 10 16 0.00 0.00
3:53 pm 15:53 Cloudy 78 25.6 46 7.8 32 32 SW 16 26 29.98 1015 10 16 0.00 0.00
4:53 pm 16:53 Cloudy with Light Rain 72 22.2 53 11.7 52 52 WSW 12 19 30.00 1016 10 16 0.00 0.00
5:53 pm 17:53 Cloudy with Light Rain 67 19.4 58 14.4 73 73 SW 8 13 29.99 1016 10 16 0.01 0.25
6:53 pm 18:53 Cloudy 66 18.9 59 15 78 78 SW 6 9 29.97 1015 10 16 0.00 0.00
7:53 pm 19:53 Cloudy 65 18.3 58 14.4 78 78 SW 5 7 29.97 1015 10 16 0.00 0.00
8:53 pm 20:53 Cloudy 65 18.3 58 14.4 78 78 WSW 5 7 29.96 1015 10 16 0.00 0.00
9:53 pm 21:53 Cloudy 65 18.3 58 14.4 78 78 W 5 7 29.99 1016 10 16 0.00 0.00
10:50 pm 22:50 Cloudy 64 18 57 14 78 78 W 5 7 29.99 1016 10 16 0.00 0.00
10:53 pm 22:53 Cloudy 65 18.3 57 13.9 76 76 W 5 7 29.98 1015 10 16 0.00 0.00
11:50 pm 23:50 Cloudy 64 18 57 14 78 78 W 6 9 29.96 1015 10 16 0.00 0.00
11:53 pm 23:53 Cloudy 64 17.8 57 13.9 78 78 W 6 9 29.96 1015 10 16 0.00 0.00

Powered by AerisWeather